Location: ?????????
(54.7630°N, 39.4991°E)
Time: 06:13:26
(UTC+00:00)

Cosmos 44 - Pass Details

Date: 14 April 2026
Orbit: 568 x 782 km, 65.1° (Epoch: 10 May)

Event Time Altitude Azimuth Distance (km) Brightness Sun altitude
Exits shadow 19:38:01 33° 94° (E) 1,258 4.3 -22.0°
Drops below altitude 10° 19:41:45 10° 55° (NE) 2,314 6.1 -22.2°
Sets 19:44:21 0° 48° (NE) 3,262 7.0 -22.4°
